Starlink 2657

operational
NORAD ID: 48655 Int'l Des: 2021-044 Owner: SPXS Country: US Constellation: starlink
LEOCIRCULARSTARLINK_TYPE

About Starlink 2657

Description loading...

Live Position

Loading 3D Globe...

Upcoming Passes

Altitude History

Altitude vs Time

uPlot chart will show altitude changes over time

Two-Line Element Set

1 48655U 21044T 25304.82654384 -.00001481 00000-0 -80539-4 0 9998
2 48655 53.0552 340.1052 0001415 84.8672 275.2478 15.06397433244287
Epoch: Oct 31, 2025 • Age: 22 hours

Current Status

Altitude 547.9 km
Velocity 7.59 km/s
Sub-Earth Point 1.09°N, 23.43°E
Launch Date May 26, 2021
Age 4.4 years
Type internet

Technical Details

Classification Payload
Mass 260.00 kg
Dry Mass 248.00 kg
Total Mass 260.00 kg
Length 0.20 m
Diameter 2.80 m
Span 9.00 m
Shape Box + pan
Manufacturer SPXS
Bus Type Starlink
Phase Status In Orbit
Owner/State SPXS/US

Large Constellations

Loading constellations...